Time,TemperatureF,DewpointF,PressureIn,WindDirection,WindDirectionDegrees,WindSpeedMPH,WindSpeedGustMPH,Humidity,HourlyPrecipIn,Conditions,Clouds,dailyrainin,SoftwareType,DateUTC
2013-08-10 00:02:00,53.3,52.2,29.98,NNW,339,0.0,3.0,96,0.00,,,0.01,Wunderground v.1.15,2013-08-10 07:02:00,
2013-08-10 00:07:00,53.0,51.9,29.98,NNW,336,1.0,3.0,96,0.00,,,0.01,Wunderground v.1.15,2013-08-10 07:07:00,
2013-08-10 00:17:00,52.5,51.4,29.98,NNW,335,1.0,5.0,96,0.00,,,0.01,Wunderground v.1.15,2013-08-10 07:17:00,
2013-08-10 00:27:00,51.9,50.8,29.98,NNW,335,1.0,2.0,96,0.00,,,0.01,Wunderground v.1.15,2013-08-10 07:27:00,
2013-08-10 00:32:00,51.7,50.6,29.98,NNW,335,1.0,1.0,96,0.00,,,0.01,Wunderground v.1.15,2013-08-10 07:32:00,
2013-08-10 00:42:00,51.5,50.7,29.98,NNW,335,1.0,2.0,97,0.00,,,0.01,Wunderground v.1.15,2013-08-10 07:42:00,
2013-08-10 00:52:00,51.7,50.9,29.97,NNW,335,1.0,3.0,97,0.00,,,0.01,Wunderground v.1.15,2013-08-10 07:52:00,
2013-08-10 01:02:00,53.1,52.6,29.98,NNE,14,2.0,2.0,98,0.00,,,0.01,Wunderground v.1.15,2013-08-10 08:02:00,
2013-08-10 01:12:00,53.5,52.7,29.98,NNE,14,1.0,1.0,97,0.00,,,0.01,Wunderground v.1.15,2013-08-10 08:12:00,
2013-08-10 01:17:00,53.7,52.9,29.99,NNE,13,1.0,5.0,97,0.00,,,0.01,Wunderground v.1.15,2013-08-10 08:17:00,
2013-08-10 01:22:00,53.2,52.1,29.99,NNE,14,1.0,5.0,96,0.00,,,0.01,Wunderground v.1.15,2013-08-10 08:22:00,
2013-08-10 01:32:00,51.8,50.7,29.98,NNE,14,2.0,4.0,96,0.00,,,0.01,Wunderground v.1.15,2013-08-10 08:32:00,
2013-08-10 01:42:00,51.9,51.1,29.99,NNE,13,1.0,4.0,97,0.00,,,0.01,Wunderground v.1.15,2013-08-10 08:42:00,
2013-08-10 01:47:00,51.7,50.9,29.99,NNE,13,2.0,4.0,97,0.00,,,0.01,Wunderground v.1.15,2013-08-10 08:47:00,
2013-08-10 01:57:00,51.7,50.9,29.99,NNE,13,2.0,4.0,97,0.00,,,0.01,Wunderground v.1.15,2013-08-10 08:57:00,
2013-08-10 02:07:00,52.3,51.5,29.99,North,5,2.0,4.0,97,0.00,,,0.01,Wunderground v.1.15,2013-08-10 09:07:00,
2013-08-10 02:17:00,53.1,52.3,29.99,North,5,2.0,6.0,97,0.00,,,0.01,Wunderground v.1.15,2013-08-10 09:17:00,
2013-08-10 02:27:00,53.3,52.5,29.99,North,5,1.0,5.0,97,0.00,,,0.01,Wunderground v.1.15,2013-08-10 09:27:00,
2013-08-10 02:32:00,53.3,52.5,29.99,North,5,1.0,4.0,97,0.00,,,0.01,Wunderground v.1.15,2013-08-10 09:32:00,
2013-08-10 02:42:00,52.4,51.6,29.99,North,5,1.0,3.0,97,0.00,,,0.01,Wunderground v.1.15,2013-08-10 09:42:00,
2013-08-10 02:52:00,51.9,51.1,29.99,North,5,1.0,1.0,97,0.00,,,0.01,Wunderground v.1.15,2013-08-10 09:52:00,
2013-08-10 03:02:00,52.2,51.4,29.99,North,5,0.0,3.0,97,0.00,,,0.01,Wunderground v.1.15,2013-08-10 10:02:00,
2013-08-10 03:07:00,52.4,51.6,29.99,North,5,0.0,3.0,97,0.00,,,0.01,Wunderground v.1.15,2013-08-10 10:07:00,
2013-08-10 03:17:00,52.0,51.2,29.99,North,5,1.0,3.0,97,0.00,,,0.01,Wunderground v.1.15,2013-08-10 10:17:00,
2013-08-10 03:22:00,51.7,50.9,29.99,North,5,1.0,3.0,97,0.00,,,0.01,Wunderground v.1.15,2013-08-10 10:22:00,
2013-08-10 03:32:00,51.4,50.6,30.00,North,5,2.0,4.0,97,0.00,,,0.01,Wunderground v.1.15,2013-08-10 10:32:00,
2013-08-10 03:42:00,51.8,51.3,30.00,North,5,1.0,2.0,98,0.00,,,0.01,Wunderground v.1.15,2013-08-10 10:42:00,
2013-08-10 03:47:00,52.0,51.2,30.00,North,5,1.0,4.0,97,0.00,,,0.01,Wunderground v.1.15,2013-08-10 10:47:00,
2013-08-10 03:57:00,51.8,51.0,30.00,North,5,1.0,3.0,97,0.00,,,0.01,Wunderground v.1.15,2013-08-10 10:57:00,
2013-08-10 04:02:00,52.0,51.2,30.00,North,5,0.0,3.0,97,0.00,,,0.01,Wunderground v.1.15,2013-08-10 11:02:00,
2013-08-10 04:12:00,52.6,52.1,30.00,North,5,0.0,1.0,98,0.00,,,0.01,Wunderground v.1.15,2013-08-10 11:12:00,
2013-08-10 04:22:00,51.6,50.8,30.00,North,5,1.0,1.0,97,0.00,,,0.01,Wunderground v.1.15,2013-08-10 11:22:00,
2013-08-10 04:27:00,51.6,50.8,30.00,North,5,1.0,2.0,97,0.00,,,0.01,Wunderground v.1.15,2013-08-10 11:27:00,
2013-08-10 04:37:00,51.7,51.2,30.00,North,5,1.0,2.0,98,0.00,,,0.01,Wunderground v.1.15,2013-08-10 11:37:00,
2013-08-10 04:47:00,51.7,50.9,30.01,North,5,1.0,2.0,97,0.00,,,0.01,Wunderground v.1.15,2013-08-10 11:47:00,
2013-08-10 04:57:00,51.3,50.5,30.01,North,5,2.0,4.0,97,0.00,,,0.01,Wunderground v.1.15,2013-08-10 11:57:00,
2013-08-10 05:07:00,51.2,50.4,30.01,North,5,1.0,3.0,97,0.00,,,0.01,Wunderground v.1.15,2013-08-10 12:07:00,
2013-08-10 05:12:00,51.3,50.5,30.01,North,5,1.0,3.0,97,0.00,,,0.01,Wunderground v.1.15,2013-08-10 12:12:00,
2013-08-10 05:22:00,51.2,50.4,30.00,North,5,2.0,2.0,97,0.00,,,0.01,Wunderground v.1.15,2013-08-10 12:22:00,
2013-08-10 05:32:00,51.3,50.8,30.00,North,5,0.0,1.0,98,0.00,,,0.01,Wunderground v.1.15,2013-08-10 12:32:00,
2013-08-10 05:42:00,51.6,51.1,30.00,North,5,0.0,0.0,98,0.00,,,0.01,Wunderground v.1.15,2013-08-10 12:42:00,
2013-08-10 05:52:00,51.9,51.4,30.01,North,5,0.0,0.0,98,0.00,,,0.01,Wunderground v.1.15,2013-08-10 12:52:00,
2013-08-10 05:57:00,52.0,51.5,30.01,North,5,0.0,0.0,98,0.00,,,0.01,Wunderground v.1.15,2013-08-10 12:57:00,
2013-08-10 06:07:00,52.2,51.7,30.01,North,5,0.0,0.0,98,0.00,,,0.01,Wunderground v.1.15,2013-08-10 13:07:00,
2013-08-10 06:17:00,52.3,51.8,30.02,North,11,0.0,3.0,98,0.00,,,0.01,Wunderground v.1.15,2013-08-10 13:17:00,
2013-08-10 06:22:00,52.4,51.9,30.02,NNE,12,1.0,1.0,98,0.00,,,0.01,Wunderground v.1.15,2013-08-10 13:22:00,
2013-08-10 06:32:00,52.7,52.2,30.02,NNE,13,1.0,3.0,98,0.00,,,0.01,Wunderground v.1.15,2013-08-10 13:32:00,
2013-08-10 06:42:00,52.9,52.4,30.03,NNE,17,1.0,1.0,98,0.00,,,0.01,Wunderground v.1.15,2013-08-10 13:42:00,
2013-08-10 06:52:00,52.8,52.3,30.03,ESE,115,2.0,4.0,98,0.00,,,0.01,Wunderground v.1.15,2013-08-10 13:52:00,
2013-08-10 06:57:00,52.9,52.4,30.03,ESE,117,2.0,4.0,98,0.00,,,0.01,Wunderground v.1.15,2013-08-10 13:57:00,
2013-08-10 07:12:00,52.9,52.4,30.03,SE,129,2.0,2.0,98,0.00,,,0.01,Wunderground v.1.15,2013-08-10 14:12:00,
2013-08-10 07:22:00,53.0,52.5,30.03,SE,131,1.0,5.0,98,0.00,,,0.01,Wunderground v.1.15,2013-08-10 14:22:00,
2013-08-10 07:27:00,53.1,52.6,30.03,SE,131,1.0,5.0,98,0.00,,,0.01,Wunderground v.1.15,2013-08-10 14:27:00,
2013-08-10 07:32:00,53.1,52.6,30.03,SE,131,1.0,5.0,98,0.00,,,0.01,Wunderground v.1.15,2013-08-10 14:32:00,
2013-08-10 07:42:00,53.3,52.8,30.04,SE,131,1.0,4.0,98,0.00,,,0.01,Wunderground v.1.15,2013-08-10 14:42:00,
2013-08-10 07:52:00,53.5,52.9,30.04,SE,131,1.0,1.0,98,0.00,,,0.01,Wunderground v.1.15,2013-08-10 14:52:00,
2013-08-10 08:02:00,53.6,53.0,30.04,SE,131,0.0,2.0,98,0.00,,,0.01,Wunderground v.1.15,2013-08-10 15:02:00,
2013-08-10 08:07:00,53.7,53.1,30.04,SE,131,0.0,2.0,98,0.00,,,0.01,Wunderground v.1.15,2013-08-10 15:07:00,
2013-08-10 08:17:00,53.8,53.2,30.04,SE,131,1.0,4.0,98,0.00,,,0.01,Wunderground v.1.15,2013-08-10 15:17:00,
2013-08-10 08:22:00,54.0,53.4,30.04,SE,131,0.0,1.0,98,0.00,,,0.01,Wunderground v.1.15,2013-08-10 15:22:00,
2013-08-10 08:32:00,54.1,53.5,30.04,SE,131,1.0,1.0,98,0.00,,,0.01,Wunderground v.1.15,2013-08-10 15:32:00,
2013-08-10 08:37:00,54.3,53.7,30.04,SE,131,0.0,2.0,98,0.00,,,0.01,Wunderground v.1.15,2013-08-10 15:37:00,
2013-08-10 08:47:00,54.3,53.7,30.04,SE,131,0.0,2.0,98,0.00,,,0.01,Wunderground v.1.15,2013-08-10 15:47:00,
2013-08-10 08:52:00,54.3,53.7,30.04,SE,131,1.0,1.0,98,0.00,,,0.00,Wunderground v.1.15,2013-08-10 15:52:00,
2013-08-10 08:57:00,54.5,53.9,30.04,SE,131,1.0,4.0,98,0.00,,,0.00,Wunderground v.1.15,2013-08-10 15:57:00,
2013-08-10 09:07:00,54.7,54.1,30.05,SE,131,1.0,4.0,98,0.00,,,0.00,Wunderground v.1.15,2013-08-10 16:07:00,
2013-08-10 09:17:00,54.6,54.0,30.05,SE,131,1.0,4.0,98,0.00,,,0.00,Wunderground v.1.15,2013-08-10 16:17:00,
2013-08-10 09:27:00,54.8,54.2,30.05,SE,131,1.0,4.0,98,0.00,,,0.00,Wunderground v.1.15,2013-08-10 16:27:00,
2013-08-10 09:37:00,54.6,54.0,30.05,SE,131,2.0,4.0,98,0.00,,,0.00,Wunderground v.1.15,2013-08-10 16:37:00,
2013-08-10 09:47:00,54.1,53.5,30.05,SE,131,2.0,4.0,98,0.00,,,0.00,Wunderground v.1.15,2013-08-10 16:47:00,
2013-08-10 09:57:00,54.2,53.6,30.05,SE,131,0.0,1.0,98,0.00,,,0.00,Wunderground v.1.15,2013-08-10 16:57:00,
2013-08-10 10:07:00,54.8,54.2,30.06,SE,131,1.0,4.0,98,0.00,,,0.00,Wunderground v.1.15,2013-08-10 17:07:00,
2013-08-10 10:12:00,55.1,54.5,30.06,SE,131,2.0,4.0,98,0.00,,,0.00,Wunderground v.1.15,2013-08-10 17:12:00,
2013-08-10 10:22:00,55.2,54.6,30.06,SSE,156,3.0,6.0,98,0.00,,,0.00,Wunderground v.1.15,2013-08-10 17:22:00,
2013-08-10 10:32:00,55.2,54.6,30.06,SSE,157,3.0,3.0,98,0.00,,,0.00,Wunderground v.1.15,2013-08-10 17:32:00,
2013-08-10 10:37:00,55.1,54.5,30.06,South,169,3.0,5.0,98,0.00,,,0.00,Wunderground v.1.15,2013-08-10 17:37:00,
2013-08-10 10:42:00,55.0,54.4,30.06,South,170,3.0,7.0,98,0.00,,,0.00,Wunderground v.1.15,2013-08-10 17:42:00,
2013-08-10 10:52:00,55.1,54.5,30.06,South,170,2.0,5.0,98,0.00,,,0.00,Wunderground v.1.15,2013-08-10 17:52:00,
2013-08-10 11:02:00,55.0,54.4,30.06,South,180,3.0,3.0,98,0.00,,,0.00,Wunderground v.1.15,2013-08-10 18:02:00,
2013-08-10 11:12:00,55.4,54.8,30.07,South,183,2.0,5.0,98,0.00,,,0.01,Wunderground v.1.15,2013-08-10 18:12:00,
2013-08-10 11:22:00,54.8,54.2,30.06,SSW,194,2.0,5.0,98,0.00,,,0.01,Wunderground v.1.15,2013-08-10 18:22:00,
2013-08-10 11:27:00,54.6,54.0,30.06,SSW,194,1.0,5.0,98,0.00,,,0.01,Wunderground v.1.15,2013-08-10 18:27:00,
2013-08-10 11:37:00,54.4,53.8,30.06,SSW,194,2.0,4.0,98,0.00,,,0.01,Wunderground v.1.15,2013-08-10 18:37:00,
2013-08-10 11:47:00,54.7,54.1,30.06,SSW,194,0.0,2.0,98,0.00,,,0.01,Wunderground v.1.15,2013-08-10 18:47:00,
2013-08-10 11:57:00,55.0,54.4,30.06,SSW,194,2.0,4.0,98,0.00,,,0.01,Wunderground v.1.15,2013-08-10 18:57:00,
2013-08-10 12:02:00,55.2,54.6,30.07,SSW,194,1.0,2.0,98,0.00,,,0.01,Wunderground v.1.15,2013-08-10 19:02:00,
2013-08-10 12:12:00,55.8,55.2,30.07,SSW,196,2.0,5.0,98,0.00,,,0.01,Wunderground v.1.15,2013-08-10 19:12:00,
2013-08-10 12:22:00,55.9,55.3,30.07,SW,232,3.0,3.0,98,0.00,,,0.01,Wunderground v.1.15,2013-08-10 19:22:00,
2013-08-10 12:32:00,55.4,54.8,30.08,SW,221,3.0,6.0,98,0.00,,,0.01,Wunderground v.1.15,2013-08-10 19:32:00,
2013-08-10 12:42:00,55.5,54.9,30.08,SW,224,4.0,5.0,98,0.00,,,0.01,Wunderground v.1.15,2013-08-10 19:42:00,
2013-08-10 12:52:00,56.1,55.5,30.07,SW,223,3.0,3.0,98,0.00,,,0.01,Wunderground v.1.15,2013-08-10 19:52:00,
2013-08-10 13:02:00,56.4,55.8,30.07,SW,225,3.0,6.0,98,0.00,,,0.01,Wunderground v.1.15,2013-08-10 20:02:00,
2013-08-10 13:12:00,56.4,55.8,30.07,SW,233,3.0,3.0,98,0.00,,,0.01,Wunderground v.1.15,2013-08-10 20:12:00,
2013-08-10 13:22:00,56.0,55.4,30.08,WSW,240,3.0,3.0,98,0.00,,,0.01,Wunderground v.1.15,2013-08-10 20:22:00,
2013-08-10 13:27:00,56.1,55.5,30.07,WSW,238,3.0,4.0,98,0.00,,,0.01,Wunderground v.1.15,2013-08-10 20:27:00,
2013-08-10 13:37:00,56.6,56.0,30.07,SW,220,4.0,6.0,98,0.00,,,0.01,Wunderground v.1.15,2013-08-10 20:37:00,
2013-08-10 13:47:00,56.5,55.9,30.07,SW,224,3.0,5.0,98,0.00,,,0.01,Wunderground v.1.15,2013-08-10 20:47:00,
2013-08-10 13:52:00,56.2,55.6,30.07,SW,224,3.0,3.0,98,0.00,,,0.01,Wunderground v.1.15,2013-08-10 20:52:00,
2013-08-10 14:02:00,56.2,55.6,30.07,SW,224,2.0,4.0,98,0.00,,,0.01,Wunderground v.1.15,2013-08-10 21:02:00,
2013-08-10 14:12:00,55.9,55.3,30.08,SW,224,3.0,4.0,98,0.00,,,0.01,Wunderground v.1.15,2013-08-10 21:12:00,
2013-08-10 14:17:00,56.2,55.6,30.07,SW,225,3.0,5.0,98,0.00,,,0.01,Wunderground v.1.15,2013-08-10 21:17:00,
2013-08-10 14:27:00,56.2,55.6,30.07,SSW,210,5.0,7.0,98,0.00,,,0.01,Wunderground v.1.15,2013-08-10 21:27:00,
2013-08-10 14:37:00,56.9,56.3,30.07,SW,220,4.0,7.0,98,0.00,,,0.01,Wunderground v.1.15,2013-08-10 21:37:00,
2013-08-10 14:47:00,57.2,56.6,30.07,SW,223,4.0,6.0,98,0.00,,,0.01,Wunderground v.1.15,2013-08-10 21:47:00,
2013-08-10 14:57:00,57.2,56.6,30.07,SW,223,3.0,6.0,98,0.00,,,0.01,Wunderground v.1.15,2013-08-10 21:57:00,
2013-08-10 15:07:00,57.3,56.7,30.07,SW,214,4.0,6.0,98,0.00,,,0.01,Wunderground v.1.15,2013-08-10 22:07:00,
2013-08-10 15:17:00,56.5,55.4,30.07,WSW,254,5.0,7.0,96,0.00,,,0.01,Wunderground v.1.15,2013-08-10 22:17:00,
2013-08-10 15:27:00,55.7,54.9,30.07,WSW,250,4.0,6.0,97,0.00,,,0.01,Wunderground v.1.15,2013-08-10 22:27:00,
2013-08-10 15:37:00,55.9,55.1,30.07,WSW,250,3.0,6.0,97,0.00,,,0.01,Wunderground v.1.15,2013-08-10 22:37:00,
2013-08-10 15:47:00,56.2,55.4,30.07,WSW,250,2.0,4.0,97,0.00,,,0.01,Wunderground v.1.15,2013-08-10 22:47:00,
2013-08-10 15:52:00,56.4,55.6,30.07,WSW,250,2.0,3.0,97,0.00,,,0.01,Wunderground v.1.15,2013-08-10 22:52:00,
2013-08-10 16:02:00,56.5,55.7,30.07,WSW,250,3.0,4.0,97,0.00,,,0.01,Wunderground v.1.15,2013-08-10 23:02:00,
2013-08-10 16:07:00,56.3,55.5,30.06,WSW,250,3.0,5.0,97,0.00,,,0.01,Wunderground v.1.15,2013-08-10 23:07:00,
2013-08-10 16:17:00,56.0,55.2,30.06,WSW,250,3.0,5.0,97,0.00,,,0.01,Wunderground v.1.15,2013-08-10 23:17:00,
2013-08-10 16:22:00,56.2,55.4,30.06,WSW,250,1.0,1.0,97,0.00,,,0.01,Wunderground v.1.15,2013-08-10 23:22:00,
2013-08-10 16:32:00,56.7,55.9,30.06,WSW,251,0.0,2.0,97,0.00,,,0.01,Wunderground v.1.15,2013-08-10 23:32:00,
2013-08-10 16:42:00,57.1,56.3,30.06,WSW,250,0.0,2.0,97,0.00,,,0.01,Wunderground v.1.15,2013-08-10 23:42:00,
2013-08-10 16:47:00,56.9,56.1,30.06,WSW,250,2.0,3.0,97,0.00,,,0.01,Wunderground v.1.15,2013-08-10 23:47:00,
2013-08-10 16:57:00,56.0,54.9,30.06,WSW,251,3.0,4.0,96,0.00,,,0.01,Wunderground v.1.15,2013-08-10 23:57:00,
2013-08-10 17:07:00,55.8,55.0,30.06,WSW,250,2.0,4.0,97,0.00,,,0.01,Wunderground v.1.15,2013-08-11 00:07:00,
2013-08-10 17:12:00,55.7,54.9,30.07,WSW,250,2.0,4.0,97,0.00,,,0.02,Wunderground v.1.15,2013-08-11 00:12:00,
2013-08-10 17:22:00,55.6,54.8,30.07,WSW,250,2.0,4.0,97,0.00,,,0.02,Wunderground v.1.15,2013-08-11 00:22:00,
2013-08-10 17:27:00,55.4,54.6,30.08,WSW,250,2.0,4.0,97,0.00,,,0.02,Wunderground v.1.15,2013-08-11 00:27:00,
2013-08-10 17:37:00,55.3,54.5,30.08,SW,232,3.0,5.0,97,0.00,,,0.02,Wunderground v.1.15,2013-08-11 00:37:00,
2013-08-10 17:42:00,55.2,54.4,30.08,SW,226,3.0,7.0,97,0.00,,,0.02,Wunderground v.1.15,2013-08-11 00:42:00,
2013-08-10 17:52:00,55.4,54.6,30.08,SSW,194,3.0,3.0,97,0.00,,,0.03,Wunderground v.1.15,2013-08-11 00:52:00,
2013-08-10 18:02:00,55.2,54.4,30.08,SSW,211,3.0,8.0,97,0.05,,,0.04,Wunderground v.1.15,2013-08-11 01:02:00,
2013-08-10 18:12:00,54.5,53.7,30.08,SSW,207,4.0,8.0,97,0.04,,,0.04,Wunderground v.1.15,2013-08-11 01:12:00,
2013-08-10 18:22:00,54.8,54.0,30.08,SSW,206,4.0,8.0,97,0.00,,,0.04,Wunderground v.1.15,2013-08-11 01:22:00,
2013-08-10 18:32:00,54.9,54.1,30.08,SSW,205,4.0,4.0,97,0.00,,,0.04,Wunderground v.1.15,2013-08-11 01:32:00,
2013-08-10 18:42:00,55.5,54.9,30.08,SSW,205,2.0,5.0,98,0.00,,,0.04,Wunderground v.1.15,2013-08-11 01:42:00,
2013-08-10 18:47:00,55.7,54.9,30.07,SSW,205,2.0,5.0,97,0.00,,,0.04,Wunderground v.1.15,2013-08-11 01:47:00,
2013-08-10 18:52:00,55.8,55.0,30.07,SSW,205,2.0,2.0,97,0.00,,,0.04,Wunderground v.1.15,2013-08-11 01:52:00,
2013-08-10 19:02:00,55.8,55.0,30.07,SSW,205,2.0,2.0,97,0.00,,,0.04,Wunderground v.1.15,2013-08-11 02:02:00,
2013-08-10 19:07:00,55.7,54.9,30.08,SSW,209,2.0,3.0,97,0.00,,,0.04,Wunderground v.1.15,2013-08-11 02:07:00,
2013-08-10 19:17:00,55.1,54.3,30.08,SSW,208,3.0,5.0,97,0.00,,,0.04,Wunderground v.1.15,2013-08-11 02:17:00,
2013-08-10 19:27:00,55.0,54.2,30.08,SSW,208,2.0,5.0,97,0.00,,,0.04,Wunderground v.1.15,2013-08-11 02:27:00,
2013-08-10 19:32:00,55.0,54.2,30.08,SSW,208,2.0,3.0,97,0.00,,,0.04,Wunderground v.1.15,2013-08-11 02:32:00,
2013-08-10 19:42:00,55.1,54.3,30.09,SSW,208,1.0,1.0,97,0.00,,,0.04,Wunderground v.1.15,2013-08-11 02:42:00,
2013-08-10 19:57:00,55.5,54.9,30.08,SSW,208,2.0,2.0,98,0.00,,,0.04,Wunderground v.1.15,2013-08-11 02:57:00,
2013-08-10 20:07:00,55.7,55.1,30.08,SSW,208,1.0,2.0,98,0.00,,,0.04,Wunderground v.1.15,2013-08-11 03:07:00,
2013-08-10 20:17:00,55.7,54.9,30.08,SSW,208,1.0,4.0,97,0.00,,,0.04,Wunderground v.1.15,2013-08-11 03:17:00,
2013-08-10 20:22:00,55.7,54.9,30.08,SSW,208,1.0,1.0,97,0.00,,,0.04,Wunderground v.1.15,2013-08-11 03:22:00,
2013-08-10 20:32:00,55.8,55.2,30.09,SSW,208,0.0,0.0,98,0.00,,,0.04,Wunderground v.1.15,2013-08-11 03:32:00,
2013-08-10 20:42:00,55.8,55.2,30.09,SSW,208,0.0,1.0,98,0.00,,,0.04,Wunderground v.1.15,2013-08-11 03:42:00,
2013-08-10 20:52:00,55.9,55.3,30.09,SSW,208,0.0,1.0,98,0.00,,,0.04,Wunderground v.1.15,2013-08-11 03:52:00,
2013-08-10 20:57:00,55.9,55.3,30.09,SSW,208,0.0,1.0,98,0.00,,,0.04,Wunderground v.1.15,2013-08-11 03:57:00,
2013-08-10 21:02:00,55.8,55.2,30.09,SSW,208,0.0,2.0,98,0.00,,,0.04,Wunderground v.1.15,2013-08-11 04:02:00,
2013-08-10 21:07:00,55.5,54.7,30.09,SSW,208,0.0,3.0,97,0.00,,,0.04,Wunderground v.1.15,2013-08-11 04:07:00,
2013-08-10 21:12:00,55.4,54.6,30.09,SSW,208,1.0,1.0,97,0.00,,,0.04,Wunderground v.1.15,2013-08-11 04:12:00,
2013-08-10 21:22:00,55.5,54.9,30.09,SSW,208,0.0,0.0,98,0.00,,,0.04,Wunderground v.1.15,2013-08-11 04:22:00,
2013-08-10 21:32:00,55.6,55.0,30.09,SSW,208,0.0,1.0,98,0.00,,,0.04,Wunderground v.1.15,2013-08-11 04:32:00,
2013-08-10 21:37:00,55.6,55.0,30.09,SSW,208,0.0,1.0,98,0.00,,,0.04,Wunderground v.1.15,2013-08-11 04:37:00,
2013-08-10 21:47:00,55.7,55.1,30.09,SSW,208,0.0,2.0,98,0.00,,,0.04,Wunderground v.1.15,2013-08-11 04:47:00,
2013-08-10 21:57:00,55.9,55.3,30.09,SSW,208,0.0,1.0,98,0.00,,,0.04,Wunderground v.1.15,2013-08-11 04:57:00,
2013-08-10 22:02:00,55.9,55.3,30.09,SSW,208,0.0,0.0,98,0.00,,,0.04,Wunderground v.1.15,2013-08-11 05:02:00,
2013-08-10 22:07:00,56.0,55.4,30.09,SSW,208,0.0,2.0,98,0.00,,,0.04,Wunderground v.1.15,2013-08-11 05:07:00,
2013-08-10 22:17:00,56.1,55.5,30.09,SSW,208,0.0,2.0,98,0.00,,,0.04,Wunderground v.1.15,2013-08-11 05:17:00,
2013-08-10 22:27:00,56.2,55.6,30.09,SSW,208,0.0,1.0,98,0.00,,,0.04,Wunderground v.1.15,2013-08-11 05:27:00,
2013-08-10 22:37:00,56.3,55.7,30.09,SSW,208,0.0,1.0,98,0.00,,,0.04,Wunderground v.1.15,2013-08-11 05:37:00,
2013-08-10 22:52:00,56.4,55.8,30.09,SSW,208,0.0,1.0,98,0.00,,,0.04,Wunderground v.1.15,2013-08-11 05:52:00,
2013-08-10 23:02:00,56.3,55.7,30.10,SSW,208,0.0,0.0,98,0.00,,,0.04,Wunderground v.1.15,2013-08-11 06:02:00,
2013-08-10 23:27:00,54.6,54.0,30.09,SSW,208,0.0,3.0,98,0.00,,,0.04,Wunderground v.1.15,2013-08-11 06:27:00,
2013-08-10 23:37:00,54.3,53.7,30.09,SSW,208,0.0,2.0,98,0.00,,,0.04,Wunderground v.1.15,2013-08-11 06:37:00,
2013-08-10 23:52:00,54.4,53.8,30.09,SSW,208,2.0,2.0,98,0.00,,,0.04,Wunderground v.1.15,2013-08-11 06:52:00,
2013-08-10 23:57:00,54.4,53.8,30.09,SSW,208,1.0,4.0,98,0.00,,,0.04,Wunderground v.1.15,2013-08-11 06:57:00,